Regional Weather Roundup
Issued by NWS Cleveland, OH

Home | Current Version | Previous Version | Text Only | Print | Product List | Glossary Off
Versions: 1 2 3 4 5 6 7 8 9 10 11 12 13 14 15 16 17 18 19 20 21 22 23 24 25 26 27 28 29 30 31 32 33 34 35 36 37 38 39 40 41 42 43 44 45 46 47 48 49 50

000
ASUS41 KCLE 241310
RWRCLE
OHIO REGIONAL WEATHER ROUNDUP
NATIONAL WEATHER SERVICE WILMINGTON, OH
800 AM EST FRI FEB 24 2017

NOTE: "FAIR" INDICATES FEW OR NO CLOUDS BELOW 12,000 FEET WITH NO
SIGNIFICANT WEATHER AND/OR OBSTRUCTIONS TO VISIBILITY.

OHZ001>008-015>018-024>027-034-035-043-044-241400-
   NORTHWEST OHIO

CITY           SKY/WX    TMP DP  RH WIND       PRES   REMARKS
DEFIANCE       FAIR      45  43  93 SE6       29.59F FOG
FINDLAY        FAIR      57  51  80 S15       29.63F
TOLEDO EXPRESS FOG       42  42 100 SE6       29.61F VSB 1/8
TOLEDO EXEC    FOG       42  42 100 CALM      29.64F VSB<1/4
LIMA           FAIR      58  54  86 S12       29.64F
$$

OHZ009>014-019>023-028>033-038-089-241400-
   NORTHEAST OHIO

CITY           SKY/WX    TMP DP  RH WIND       PRES   REMARKS
CLE-HOPKINS    FAIR      62  52  69 S13G23    29.71S
CLE-LAKEFRONT  FAIR      61  53  75 S14       29.68R
CUY CO. ARPT   PTCLDY    61  55  82 SW10      29.70F
LORAIN-ELYRIA  FAIR      58  51  78 S20       29.68F
ASHTABULA      FAIR      56  54  93 S10       29.73S
AKRON-CANTON   FAIR      58  52  80 S12       29.75S
WOOSTER        FAIR      57  52  83 S14       29.74R
MANSFIELD      FAIR      59  54  83 S15       29.71F
YOUNGSTOWN     MOCLDY    58  52  80 S12G20    29.77R
$$

OHZ042-051>053-060>062-070>072-077>081-241400-
  SOUTHWEST OHIO

CITY           SKY/WX    TMP DP  RH WIND       PRES   REMARKS
CINC-COVINGTON FAIR      60  53  77 S15       29.70S
CINC-LUNKEN    FAIR      59  54  83 S10       29.72R
HAMILTON       FAIR      61  54  77 S8        29.69F
DAYTON         MOCLDY    60  53  77 S16       29.68S
WRIGHT-PAT AFB FAIR      61  56  82 S18G24    29.68F
DAYTON GENERAL MOCLDY    60  53  77 S13G23    29.69S
WILMINGTON     MOCLDY    59  52  77 S14       29.72R
$$

OHZ036-037-039>041-045>050-054>059-063>069-073>076-082>088-241400-
  CENTRAL AND SOUTHEAST OHIO

CITY           SKY/WX    TMP DP  RH WIND       PRES   REMARKS
COLUMBUS       FAIR      63  53  70 S10       29.73R
OSU AIRPORT    FAIR      58  54  86 S10       29.72R
BOLTON FIELD   CLEAR     54  54 100 S14       29.73R
RICKENBACK AFB FAIR      58  53  82 S10       29.73S
NEWARK         FAIR      60  52  74 S12       29.74R
MARION         FAIR      59  53  80 S17       29.70S
LANCASTER      FAIR      63  52  67 S10       29.76R
ZANESVILLE     FAIR      58  51  78 S7        29.78R
NEW PHILLY     MOCLDY    58  53  84 S5        29.78R
$$




USA.gov is the U.S. government's official web portal to all federal, state and local government web resources and services.